When you browse on this site, cookies collect data to enhance your experience and personalize the content and advertising you see.
Visit our Privacy Policy to learn more. By continuing to use the site, you agree to this use of cookies and data.
  • In Hungary
  • List of Countries
  • For 7 days
  • Water Temperature
  • Satellite Maps
  • Weather Map
  • News
  • Weather Widgets
  • user-avatar
    Login

    Hourly Weather Mahon

    Today, 18 November, Sunday

    Time Temperature Precipitation Wind Pressure Humidity
    00:00 +14°C° 0 mm 5 mps 756 mmHg 75%
    01:00 +14°C° 0 mm 5 mps 756 mmHg 75%
    02:00 +14°C° 0 mm 5 mps 756 mmHg 75%
    03:00 +14°C° 0 mm 5 mps 755 mmHg 75%
    04:00 +14°C° 0.2 mm 5 mps 755 mmHg 76%
    05:00 +14°C° 0.2 mm 5 mps 755 mmHg 77%
    06:00 +14°C° 0.2 mm 5 mps 755 mmHg 78%
    07:00 +14°C° 0.3 mm 6 mps 755 mmHg 76%
    08:00 +15°C° 0.3 mm 6 mps 755 mmHg 74%
    09:00 +15°C° 0.3 mm 7 mps 755 mmHg 72%
    10:00 +16°C° 0.3 mm 8 mps 755 mmHg 70%
    11:00 +16°C° 0.3 mm 8 mps 755 mmHg 68%
    12:00 +17°C° 0.3 mm 9 mps 755 mmHg 65%
    13:00 +17°C° 0.2 mm 9 mps 755 mmHg 66%
    14:00 +16°C° 0.2 mm 9 mps 754 mmHg 68%
    15:00 +16°C° 0.2 mm 10 mps 754 mmHg 69%
    16:00 +16°C° 0.2 mm 9 mps 754 mmHg 70%
    17:00 +16°C° 0.2 mm 9 mps 754 mmHg 71%
    18:00 +15°C° 0.2 mm 9 mps 754 mmHg 72%
    19:00 +16°C° 0.1 mm 9 mps 754 mmHg 73%
    20:00 +16°C° 0.1 mm 9 mps 753 mmHg 73%
    21:00 +16°C° 0.1 mm 9 mps 753 mmHg 73%
    22:00 +15°C° 0.4 mm 9 mps 753 mmHg 75%
    23:00 +15°C° 0.4 mm 9 mps 752 mmHg 77%

    Tomorrow, 19 November, Monday

    Time Temperature Precipitation Wind Pressure Humidity
    00:00 +15°C° 0.4 mm 9 mps 752 mmHg 79%
    01:00 +15°C° 0.5 mm 9 mps 751 mmHg 80%
    02:00 +15°C° 0.5 mm 9 mps 750 mmHg 81%
    03:00 +15°C° 0.5 mm 9 mps 750 mmHg 82%
    04:00 +15°C° 1.8 mm 8 mps 749 mmHg 83%
    05:00 +13°C° 1.8 mm 8 mps 749 mmHg 84%
    06:00 +13°C° 1.8 mm 8 mps 748 mmHg 85%
    07:00 +13°C° 1.6 mm 8 mps 748 mmHg 85%
    08:00 +13°C° 1.6 mm 9 mps 748 mmHg 85%
    09:00 +13°C° 1.6 mm 9 mps 747 mmHg 85%
    10:00 +13°C° 0.9 mm 10 mps 747 mmHg 84%
    11:00 +13°C° 0.9 mm 11 mps 746 mmHg 82%
    12:00 +13°C° 0.9 mm 11 mps 746 mmHg 80%
    13:00 +13°C° 2.5 mm 10 mps 745 mmHg 82%
    14:00 +12°C° 2.5 mm 10 mps 745 mmHg 83%
    15:00 +12°C° 2.5 mm 9 mps 745 mmHg 85%
    16:00 +12°C° 1.5 mm 9 mps 744 mmHg 85%
    17:00 +12°C° 1.5 mm 9 mps 744 mmHg 84%
    18:00 +12°C° 1.5 mm 9 mps 744 mmHg 84%
    19:00 +12°C° 0.1 mm 8 mps 744 mmHg 82%
    20:00 +12°C° 0.1 mm 7 mps 744 mmHg 81%
    21:00 +14°C° 0.1 mm 6 mps 744 mmHg 79%
    22:00 +14°C° 0.1 mm 6 mps 745 mmHg 79%
    23:00 +14°C° 0.1 mm 5 mps 745 mmHg 79%

    Day after tomorrow, 20 November, Tuesday

    Time Temperature Precipitation Wind Pressure Humidity
    00:00 +14°C° 0.1 mm 5 mps 745 mmHg 78%
    01:00 +14°C° 0.1 mm 5 mps 745 mmHg 79%
    02:00 +14°C° 0.1 mm 6 mps 745 mmHg 80%
    03:00 +13°C° 0.1 mm 6 mps 746 mmHg 81%
    04:00 +13°C° 0 mm 6 mps 746 mmHg 80%
    05:00 +13°C° 0 mm 6 mps 747 mmHg 79%
    06:00 +13°C° 0 mm 6 mps 747 mmHg 78%
    07:00 +14°C° 0 mm 5 mps 747 mmHg 75%
    08:00 +14°C° 0 mm 4 mps 748 mmHg 71%
    09:00 +16°C° 0 mm 3 mps 749 mmHg 68%
    10:00 +15°C° 0 mm 4 mps 749 mmHg 68%
    11:00 +17°C° 0 mm 4 mps 749 mmHg 67%
    12:00 +16°C° 0 mm 5 mps 749 mmHg 67%
    13:00 +16°C° 0.1 mm 6 mps 749 mmHg 68%
    14:00 +16°C° 0.1 mm 7 mps 749 mmHg 70%
    15:00 +16°C° 0.1 mm 7 mps 749 mmHg 72%
    16:00 +16°C° 0.2 mm 8 mps 749 mmHg 72%
    17:00 +16°C° 0.2 mm 8 mps 749 mmHg 72%
    18:00 +16°C° 0.2 mm 8 mps 749 mmHg 72%
    19:00 +16°C° 1.4 mm 9 mps 749 mmHg 77%
    20:00 +14°C° 1.4 mm 10 mps 749 mmHg 81%
    21:00 +14°C° 1.4 mm 10 mps 749 mmHg 86%
    22:00 +14°C° 0.7 mm 10 mps 749 mmHg 82%
    23:00 +14°C° 0.7 mm 10 mps 749 mmHg 79%

    21 November, Wednesday

    Time Temperature Precipitation Wind Pressure Humidity
    00:00 +15°C° 0.7 mm 9 mps 749 mmHg 76%
    01:00 +14°C° 0 mm 10 mps 750 mmHg 73%
    02:00 +14°C° 0 mm 10 mps 750 mmHg 70%
    03:00 +14°C° 0 mm 10 mps 750 mmHg 67%
    04:00 +14°C° 0 mm 10 mps 751 mmHg 68%
    05:00 +14°C° 0 mm 10 mps 751 mmHg 69%
    06:00 +14°C° 0 mm 10 mps 752 mmHg 70%
    07:00 +16°C° 0 mm 10 mps 752 mmHg 66%
    08:00 +16°C° 0 mm 10 mps 753 mmHg 63%
    09:00 +16°C° 0 mm 10 mps 754 mmHg 60%
    10:00 +17°C° 0 mm 10 mps 754 mmHg 59%
    11:00 +17°C° 0 mm 9 mps 755 mmHg 58%
    12:00 +17°C° 0 mm 9 mps 755 mmHg 57%
    13:00 +17°C° 0 mm 9 mps 755 mmHg 58%
    14:00 +17°C° 0 mm 8 mps 755 mmHg 59%
    15:00 +16°C° 0 mm 8 mps 755 mmHg 60%
    16:00 +16°C° 0 mm 8 mps 756 mmHg 61%
    17:00 +15°C° 0 mm 7 mps 756 mmHg 62%
    18:00 +15°C° 0 mm 7 mps 756 mmHg 63%
    19:00 +15°C° 0 mm 7 mps 757 mmHg 63%
    20:00 +15°C° 0 mm 7 mps 757 mmHg 63%
    21:00 +15°C° 0 mm 6 mps 758 mmHg 63%
    22:00 +15°C° 0.1 mm 6 mps 757 mmHg 66%
    23:00 +15°C° 0.1 mm 6 mps 757 mmHg 70%

    22 November, Thursday

    Time Temperature Precipitation Wind Pressure Humidity
    00:00 +15°C° 0.1 mm 5 mps 757 mmHg 74%
    01:00 +15°C° 0.6 mm 6 mps 757 mmHg 76%
    02:00 +15°C° 0.6 mm 7 mps 757 mmHg 77%
    03:00 +15°C° 0.6 mm 7 mps 757 mmHg 79%
    04:00 +15°C° 0.2 mm 7 mps 757 mmHg 80%
    05:00 +15°C° 0.2 mm 6 mps 757 mmHg 80%
    06:00 +14°C° 0.2 mm 6 mps 757 mmHg 81%
    07:00 +15°C° 0 mm 6 mps 758 mmHg 77%
    08:00 +16°C° 0 mm 5 mps 758 mmHg 73%
    09:00 +17°C° 0 mm 5 mps 759 mmHg 70%
    10:00 +17°C° 0 mm 5 mps 759 mmHg 65%
    11:00 +17°C° 0 mm 5 mps 759 mmHg 61%
    12:00 +19°C° 0 mm 5 mps 759 mmHg 56%
    13:00 +19°C° 0 mm 5 mps 759 mmHg 57%
    14:00 +18°C° 0 mm 4 mps 759 mmHg 57%
    15:00 +18°C° 0 mm 3 mps 759 mmHg 58%
    16:00 +17°C° 0.1 mm 3 mps 759 mmHg 61%
    17:00 +17°C° 0.1 mm 3 mps 759 mmHg 65%
    18:00 +16°C° 0.1 mm 3 mps 759 mmHg 69%
    19:00 +16°C° 0.4 mm 3 mps 760 mmHg 71%
    20:00 +15°C° 0.4 mm 4 mps 760 mmHg 73%
    21:00 +15°C° 0.4 mm 4 mps 760 mmHg 75%
    22:00 +15°C° 0.6 mm 4 mps 760 mmHg 76%
    23:00 +15°C° 0.6 mm 5 mps 760 mmHg 77%

    23 November, Friday

    Time Temperature Precipitation Wind Pressure Humidity
    00:00 +15°C° 0.6 mm 5 mps 760 mmHg 78%
    01:00 +15°C° 0.2 mm 5 mps 760 mmHg 78%
    02:00 +15°C° 0.2 mm 5 mps 760 mmHg 78%
    03:00 +15°C° 0.2 mm 5 mps 761 mmHg 78%
    04:00 +14°C° 0.1 mm 5 mps 761 mmHg 79%
    05:00 +14°C° 0.1 mm 4 mps 761 mmHg 79%
    06:00 +14°C° 0.1 mm 4 mps 761 mmHg 80%
    07:00 +16°C° 0 mm 3 mps 762 mmHg 76%
    08:00 +17°C° 0 mm 3 mps 762 mmHg 73%
    09:00 +17°C° 0 mm 3 mps 763 mmHg 70%
    10:00 +18°C° 0 mm 2 mps 762 mmHg 67%
    11:00 +18°C° 0 mm 2 mps 762 mmHg 64%
    12:00 +19°C° 0 mm 2 mps 762 mmHg 62%
    13:00 +19°C° 0 mm 2 mps 762 mmHg 62%
    14:00 +19°C° 0 mm 1 mps 762 mmHg 63%
    15:00 +19°C° 0 mm 1 mps 762 mmHg 64%
    16:00 +18°C° 0 mm 1 mps 762 mmHg 68%
    17:00 +16°C° 0 mm 2 mps 762 mmHg 72%
    18:00 +16°C° 0 mm 2 mps 762 mmHg 75%
    19:00 +16°C° 0 mm 2 mps 762 mmHg 77%
    20:00 +16°C° 0 mm 3 mps 762 mmHg 78%
    21:00 +16°C° 0 mm 3 mps 762 mmHg 80%
    22:00 +15°C° 0 mm 4 mps 761 mmHg 80%
    23:00 +17°C° 0 mm 4 mps 761 mmHg 81%
    Show more